Location: �ura�inovi?i
(45.1594°N, 16.1731°E)
Time: 18:33:01
(UTC+00:00)

Daily predictions for brighter satellites

Satellite Brightness Start Highest point End
(mag) Time Altitude Azimuth Time Altitude Azimuth Time Altitude Azimuth
Cosmos 2279 Rocket 4.1 19:07:59 10° N 19:14:15 87° W 19:20:27 10° S
CENTAUR R/B 3.8 19:06:58 10° NNW 19:14:33 47° NE 19:22:53 10° ESE
Resurs 01 Rocket 1.7 19:11:53 10° SSE 19:16:19 69° ENE 19:20:45 10° N
STARLINK-1130 (DARKSAT) 4.0 19:12:17 10° WNW 19:16:21 57° SW 19:20:25 10° SE
MOS 1 Rocket 3.8 19:12:32 10° N 19:16:47 60° WNW 19:20:59 10° SSW
USA 245 4.2 19:15:36 10° ESE 19:17:15 16° ENE 19:18:47 10° NNE
Cosmos 2151 Rocket 3.9 19:13:36 10° NNW 19:18:08 75° W 19:22:38 10° S
STARLINK-1084 4.1 19:17:18 10° WNW 19:21:20 52° SW 19:25:21 10° SE
Cosmos 1066 Rocket 4.2 19:16:45 10° S 19:22:00 60° E 19:27:17 10° NNE
ATLAS 3B R/B 4.2 19:16:54 10° NNW 19:22:35 28° NNE 19:28:24 10° E
Cosmos 1110 Rocket 4.0 19:17:29 10° SSW 19:22:40 81° ESE 19:27:51 10° NNE
Spot 2 Rocket 4.1 19:18:04 10° SE 19:22:46 42° ENE 19:27:32 10° N
Meteor 1-23 Rocket 4.3 19:17:41 10° S 19:23:16 65° E 19:28:50 10° NNE
STARLINK-52 3.5 19:21:06 10° SSW 19:24:05 36° SE 19:27:05 10° ENE
DMSP B5D2-2 4.4 19:19:21 10° N 19:24:37 73° WNW 19:29:51 10° SSW
Cosmos 304 Rocket 4.2 19:21:02 10° SSW 19:25:47 68° WNW 19:30:35 10° NNE
STARLINK-1098 4.2 19:22:16 10° WNW 19:26:16 47° SW 19:30:15 10° SSE
NOSS 2-2 (D) 3.4 19:22:54 10° SW 19:26:27 74° NW 19:30:24 10° NE
Cosmos 1378 3.7 19:24:25 10° SSE 19:27:52 38° E 19:31:20 10° NNE
Terra 3.8 19:25:05 10° E 19:27:57 16° ENE 19:30:50 10° NNE
Resurs 1-3 4.1 19:23:57 10° S 19:28:17 61° WSW 19:32:39 10° NNW
EXPRESS MD2 3.5 19:26:43 10° WSW 19:29:28 66° NNW 19:34:27 10° ENE
STARLINK-1123 4.3 19:27:17 10° WNW 19:31:14 44° SW 19:35:09 10° SSE
Cosmos 1378 Rocket 3.5 19:27:15 10° S 19:31:37 76° E 19:36:00 10° NNE
Cosmos 1674 Rocket 3.7 19:27:35 10° S 19:31:59 82° W 19:36:26 10° N
Cosmos 1331 Rocket 4.0 19:29:21 10° SSW 19:34:30 89° WNW 19:39:45 10° NNE
STARLINK-1097 4.5 19:32:18 10° WNW 19:36:12 40° SW 19:39:56 11° SSE
NOSS 3-2 (C) 4.3 19:30:33 10° NW 19:37:58 63° NE 19:46:03 11° SE
Cosmos 1805 3.6 19:35:38 10° N 19:39:29 51° ENE 19:43:03 12° SSE
SAR-Lupe-2 4.3 19:37:08 10° NNE 19:40:29 35° E 19:43:48 10° SSE
Abrixas rocket 4.4 19:42:51 10° WSW 19:44:18 13° SW 19:45:44 10° S
COSMOS 2455 4.0 19:40:47 10° SSE 19:45:14 22° ESE 19:49:42 10° ENE
STARLINK-1444 2.2 19:44:11 10° WSW 19:46:16 66° NNW 19:48:23 10° NE
OE (NEXTSAT) 4.3 19:42:56 10° WSW 19:46:28 83° SSE 19:49:58 10° E
NOSS 3-4 (A) 3.9 19:41:29 10° S 19:46:47 35° ESE 19:52:19 10° NE
NOSS 3-4 (C) 4.0 19:41:36 10° S 19:46:53 35° ESE 19:52:25 10° NE
STARLINK-1452 2.3 19:44:50 10° WSW 19:46:55 64° NNW 19:48:59 10° NE
STARLINK-1392 2.3 19:45:50 10° WSW 19:47:50 62° NNW 19:49:52 10° NE
STARLINK-1399 2.3 19:45:50 10° WSW 19:47:51 62° NNW 19:49:54 10° NE
STARLINK-1393 2.3 19:45:52 10° WSW 19:47:53 62° NNW 19:49:55 10° NE
STARLINK-1394 2.3 19:45:54 10° WSW 19:47:54 62° NNW 19:49:56 10° NE
STARLINK-1397 2.3 19:45:56 10° WSW 19:47:57 62° NNW 19:49:59 10° NE
STARLINK-1395 2.3 19:45:58 10° WSW 19:47:57 61° NNW 19:49:58 10° NE
STARLINK-1396 2.3 19:45:57 10° WSW 19:47:57 61° NNW 19:50:00 10° NE
STARLINK-1414 2.3 19:45:58 10° WSW 19:47:58 61° NNW 19:49:59 10° NE
STARLINK-1408 2.3 19:46:00 10° WSW 19:48:00 61° NNW 19:50:02 10° NE
STARLINK-1404 2.3 19:46:00 10° WSW 19:48:01 61° NNW 19:50:04 10° NE
STARLINK-1416 2.3 19:46:01 10° WSW 19:48:02 61° NNW 19:50:04 10° NE
STARLINK-1415 2.3 19:46:01 10° WSW 19:48:03 61° NNW 19:50:06 10° NE
STARLINK-1450 2.3 19:46:01 10° WSW 19:48:03 61° NNW 19:50:06 10° NE
STARLINK-1401 2.3 19:46:04 10° WSW 19:48:05 61° NNW 19:50:09 10° NE
STARLINK-1406 2.3 19:46:06 10° WSW 19:48:06 61° NNW 19:50:07 10° NE
STARLINK-1417 2.3 19:46:07 10° WSW 19:48:09 61° NNW 19:50:12 10° NE
STARLINK-1402 2.3 19:46:08 10° WSW 19:48:10 61° NNW 19:50:13 10° NE
STARLINK-1419 2.3 19:46:09 10° WSW 19:48:10 61° NNW 19:50:13 10° NE
STARLINK-1413 2.3 19:46:08 10° WSW 19:48:10 61° NNW 19:50:13 10° NE
STARLINK-1422 2.3 19:46:13 10° WSW 19:48:15 61° NNW 19:50:18 10° NE
STARLINK-1453 2.3 19:46:13 10° WSW 19:48:16 61° NNW 19:50:20 10° NE
STARLINK-1398 2.3 19:46:13 10° WSW 19:48:16 61° NNW 19:50:21 10° NE
STARLINK-1440 2.3 19:46:15 10° WSW 19:48:17 61° NNW 19:50:20 10° NE
STARLINK-1436 (VISORSAT) 2.3 19:46:15 10° WSW 19:48:18 61° NNW 19:50:23 10° NE
STARLINK-1420 2.3 19:46:16 10° WSW 19:48:18 61° NNW 19:50:22 10° NE
STARLINK-1460 2.3 19:46:19 10° WSW 19:48:21 61° NNW 19:50:25 10° NE
STARLINK-1410 2.3 19:46:25 10° WSW 19:48:26 61° NNW 19:50:29 10° NE
STARLINK-1423 2.3 19:46:26 10° WSW 19:48:26 60° NNW 19:50:29 10° NE
STARLINK-1421 2.3 19:46:26 10° WSW 19:48:26 60° NNW 19:50:29 10° NE
STARLINK-1400 2.3 19:46:25 10° WSW 19:48:27 61° NNW 19:50:30 10° NE
STARLINK-1454 2.3 19:46:25 10° WSW 19:48:27 61° NNW 19:50:30 10° NE
STARLINK-1458 2.3 19:46:27 10° WSW 19:48:28 60° NNW 19:50:31 10° NE
STARLINK-1445 2.3 19:46:29 10° WSW 19:48:30 61° NNW 19:50:34 10° NE
STARLINK-1446 2.3 19:46:31 10° WSW 19:48:33 61° NNW 19:50:36 10° NE
STARLINK-1407 2.3 19:46:31 10° WSW 19:48:34 61° NNW 19:50:36 10° NE
STARLINK-1405 2.3 19:46:36 10° WSW 19:48:35 60° NNW 19:50:36 10° NE
STARLINK-1370 2.3 19:46:34 10° WSW 19:48:36 60° NNW 19:50:40 10° NE
STARLINK-1457 2.3 19:46:35 10° WSW 19:48:36 60° NNW 19:50:39 10° NE
STARLINK-1456 2.3 19:46:35 10° WSW 19:48:37 60° NNW 19:50:39 10° NE
STARLINK-1451 2.3 19:46:35 10° WSW 19:48:37 60° NNW 19:50:39 10° NE
STARLINK-1437 2.3 19:46:35 10° WSW 19:48:37 60° NNW 19:50:40 10° NE
STARLINK-1455 2.3 19:46:35 10° WSW 19:48:37 60° NNW 19:50:41 10° NE
STARLINK-1409 2.3 19:46:36 10° WSW 19:48:38 60° NNW 19:50:40 10° NE
STARLINK-1447 2.3 19:46:35 10° WSW 19:48:38 60° NNW 19:50:41 10° NE
STARLINK-1439 2.3 19:46:39 10° WSW 19:48:38 60° NNW 19:50:39 10° NE
STARLINK-1441 2.3 19:46:37 10° WSW 19:48:40 60° NNW 19:50:43 10° NE
STARLINK-1443 2.4 19:46:39 10° WSW 19:48:42 60° NNW 19:50:46 10° NE
STARLINK-1351 2.4 19:46:42 10° WSW 19:48:44 60° NNW 19:50:48 10° NE
STARLINK-1418 2.4 19:46:42 10° WSW 19:48:44 60° NNW 19:50:48 10° NE
Cosmos 1302 Rocket 4.0 19:43:31 10° S 19:48:45 66° ESE 19:54:00 10° NNE
STARLINK-1442 2.3 19:46:42 10° WSW 19:48:45 60° NNW 19:50:48 10° NE
STARLINK-1403 2.4 19:46:42 10° WSW 19:48:45 60° NNW 19:50:49 10° NE
STARLINK-1434 2.4 19:46:42 10° WSW 19:48:45 60° NNW 19:50:49 10° NE
STARLINK-1448 2.4 19:46:44 10° WSW 19:48:46 60° NNW 19:50:50 10° NE
STARLINK-1433 2.4 19:46:46 10° WSW 19:48:48 60° NNW 19:50:51 10° NE
STARLINK-1449 2.4 19:46:47 10° WSW 19:48:49 60° NNW 19:50:52 10° NE
STARLINK-1438 2.3 19:46:50 10° WSW 19:48:52 60° NNW 19:50:54 10° NE
STARLINK-1411 2.4 19:46:57 10° WSW 19:48:58 60° NNW 19:51:01 10° NE
STARLINK-1412 2.4 19:46:57 10° WSW 19:48:58 60° NNW 19:51:02 10° NE
FALCON 9 DEB 3.5 19:46:30 10° SSW 19:49:43 40° SE 19:52:58 10° ENE
Cosmos 1733 3.7 19:46:22 10° N 19:50:02 44° ENE 19:52:52 15° SE
CZ-2C R/B 3.9 19:45:22 10° N 19:50:45 48° WNW 19:56:05 10° SW
STARLINK-60 3.8 19:49:02 10° WSW 19:52:08 53° NNW 19:55:16 10° NE
STARLINK-1235 3.4 19:50:11 10° NW 19:53:37 63° NNE 19:56:27 14° ESE
SPOT 1/Viking Rocket 3.7 19:49:52 13° SSE 19:54:26 59° ENE 19:59:30 10° N
Cosmos 2263 4.5 19:49:26 10° S 19:54:43 45° ESE 20:00:03 10° NE
Cosmos 1092 Rocket 4.1 19:49:23 10° S 19:55:23 60° E 20:01:26 10° NNE
Cosmos 1842 3.9 19:53:22 14° SSE 19:56:21 38° E 19:59:58 10° NNE
Cosmos 1486 Rocket 4.3 19:52:10 10° NNW 19:57:23 54° ENE 20:01:30 16° SE
SL-27 R/B 2.6 19:53:59 10° NNW 19:57:31 63° ENE 19:59:59 18° SSE
Cosmos 1975 Rocket 3.4 19:53:44 11° SSE 19:57:49 49° E 20:02:03 10° NNE
Cosmos 292 Rocket 4.0 19:56:01 10° S 20:00:41 51° ESE 20:05:25 10° NNE
Cosmos 1943 Rocket 2.3 19:56:13 10° SSW 20:01:47 83° WNW 20:07:26 10° NNE
STARLINK-1212 3.2 19:59:58 10° NW 20:03:06 61° NNE 20:05:19 17° ESE
STARLINK-1105 3.2 20:00:36 10° NW 20:03:44 62° NNE 20:05:55 18° ESE
STARLINK-1369 4.5 20:00:36 10° S 20:03:53 25° SE 20:07:12 10° ENE
STARLINK-1247 3.1 20:01:45 10° NW 20:04:52 63° NNE 20:07:02 18° ESE
STARLINK-1227 3.1 20:02:20 10° NW 20:05:28 64° NNE 20:07:36 18° ESE
STARLINK-1226 3.1 20:03:28 10° NW 20:06:36 66° NNE 20:08:42 19° ESE
STARLINK-1215 3.1 20:04:35 10° NW 20:07:44 67° NNE 20:09:48 19° ESE
STARLINK-1372 4.4 20:04:52 10° SSW 20:08:16 28° SE 20:11:41 10° ENE
Cosmos 1271 Rocket 3.9 20:07:48 19° SE 20:09:36 27° E 20:12:58 10° NNE
Cosmos 1953 4.4 20:07:30 10° NNE 20:09:47 15° ENE 20:11:39 11° E
STARLINK-1217 3.0 20:06:48 10° NW 20:09:57 70° NNE 20:11:56 21° ESE
STARLINK-1229 3.0 20:07:53 10° NW 20:11:03 71° NNE 20:12:59 21° ESE
CZ-4B DEB 4.4 20:09:27 21° SSE 20:11:32 67° ENE 20:14:51 10° N
STARLINK-1270 3.0 20:09:00 10° NW 20:12:11 73° NNE 20:14:06 22° ESE
STARLINK-1378 4.3 20:09:08 10° SSW 20:12:37 30° SE 20:16:08 10° ENE
ATLAS 2AS CENTAUR R/B 3.1 20:06:40 10° SSW 20:14:28 63° ESE 20:22:19 10° NE
STARLINK-1189 2.9 20:11:21 10° NW 20:14:31 76° NNE 20:16:20 23° ESE
STARLINK-1188 2.9 20:12:32 10° NW 20:15:43 78° NNE 20:17:30 24° ESE
SL-4 R/B 2.7 20:11:04 10° WSW 20:15:46 69° NNW 20:20:37 10° ENE
NOSS 3-2 (A) 4.3 20:08:24 10° NW 20:15:56 65° WSW 20:22:52 16° SSE
STARLINK-1379 4.2 20:13:29 10° SSW 20:17:03 32° SE 20:20:38 10° ENE
STARLINK-1191 2.9 20:15:06 10° NW 20:18:17 82° NNE 20:19:58 25° ESE
STARLINK-1221 2.8 20:16:21 10° WNW 20:19:31 84° NNE 20:21:09 26° ESE
Landsat 7 4.0 20:15:51 14° S 20:19:54 69° WSW 20:24:40 10° NNW
Cosmos 1242 Rocket 2.8 20:18:27 21° SSE 20:20:38 52° E 20:24:14 10° NNE
STARLINK-1222 2.8 20:17:29 10° WNW 20:20:40 86° NNE 20:22:14 27° ESE
STARLINK-1329 4.1 20:17:05 10° SSW 20:20:43 34° SE 20:24:23 10° ENE
Cosmos 1656 Rocket 3.8 20:15:44 10° S 20:21:10 52° ESE 20:26:33 10° NE
Cosmos 1707 3.9 20:20:12 21° ESE 20:21:33 26° E 20:24:50 10° NNE
STARLINK-1214 2.8 20:18:49 10° WNW 20:22:00 88° NNE 20:23:32 28° ESE
ERS-1 Rocket 3.0 20:19:08 19° SSE 20:22:47 77° ENE 20:27:50 10° N
STARLINK-29 3.6 20:21:35 10° WSW 20:24:46 56° NNW 20:27:57 10° NE
STARLINK-1362 4.0 20:21:28 10° SSW 20:25:11 37° SE 20:28:54 10° ENE
Cosmos 1455 Rocket 3.0 20:22:26 10° N 20:26:47 77° E 20:29:27 23° SSE
Cosmos 1758 3.9 20:25:12 10° N 20:29:06 43° ENE 20:31:01 25° SE
STARLINK-1373 3.9 20:25:54 10° SSW 20:29:38 40° SE 20:33:25 10° ENE
USA 238 DEB 4.4 20:23:53 10° NW 20:30:52 52° WSW 20:36:27 17° S
USA 238 4.3 20:23:59 10° NW 20:30:58 53° WSW 20:36:34 17° S
STARLINK-1209 3.3 20:28:57 10° WNW 20:32:23 57° SW 20:33:43 32° SSE
IGS 5A 4.3 20:29:40 15° S 20:32:56 45° W 20:36:57 10° NNW
Cosmos 2026 Rocket 4.0 20:27:21 11° S 20:33:22 85° E 20:39:48 10° N
Meteor 1-21 4.2 20:28:50 15° S 20:33:30 72° E 20:39:04 10° NNE
STARLINK-1390 3.8 20:30:20 10° SSW 20:34:08 44° SE 20:37:57 10° ENE
ATLAS CENTAUR R/B 1.3 20:30:12 10° SSW 20:34:37 73° ESE 20:38:45 10° NE
Cosmos 968 Rocket 3.4 20:29:39 10° NNW 20:34:49 88° ENE 20:37:57 24° SSE
Okean 2 4.0 20:31:02 10° SSW 20:35:07 56° WNW 20:39:14 10° N
STARLINK-1204 4.4 20:31:30 10° NW 20:35:33 48° NNE 20:38:47 15° E
CARTOSAT-1 3.6 20:34:05 23° S 20:36:45 82° WSW 20:41:06 10° NNW
Cosmos 2369 Rocket 2.7 20:31:35 10° SW 20:37:12 63° WNW 20:42:49 10° NNE
STARLINK-1365 3.7 20:35:53 10° SW 20:39:47 50° SE 20:43:42 10° ENE
STARLINK-1320 2.7 20:37:17 10° SW 20:40:22 62° SE 20:43:28 10° ENE
STARLINK-1238 4.3 20:36:30 10° NW 20:40:33 51° NNE 20:43:34 17° E
STARLINK-1322 2.7 20:37:38 10° SW 20:40:43 63° SE 20:43:49 10° ENE
Cosmos 1867 3.5 20:35:28 10° NW 20:40:58 88° NE 20:44:11 26° SE
STARLINK-1324 2.7 20:37:56 10° SW 20:41:01 63° SE 20:44:06 10° ENE
STARLINK-1294 2.7 20:38:16 10° SW 20:41:20 63° SE 20:44:26 10° ENE
STARLINK-1261 2.7 20:38:38 10° SW 20:41:43 64° SE 20:44:49 10° ENE
STARLINK-1325 2.7 20:38:59 10° SW 20:42:04 65° SE 20:45:10 10° ENE
STARLINK-1333 2.7 20:39:21 10° SW 20:42:26 65° SE 20:45:33 10° ENE
STARLINK-1187 3.2 20:39:15 10° WNW 20:42:29 55° SW 20:43:20 40° SSE
STARLINK-1334 2.7 20:39:39 10° SW 20:42:43 66° SE 20:45:49 10° ENE
STARLINK-1326 2.7 20:39:58 10° SW 20:43:03 66° SE 20:46:08 10° ENE
STARLINK-1323 2.7 20:40:20 10° SW 20:43:25 67° SE 20:46:32 10° ENE
STARLINK-1349 2.7 20:40:37 10° SW 20:43:42 67° SE 20:46:48 10° ENE
STARLINK-1336 2.7 20:40:57 10° SW 20:44:03 68° SE 20:47:10 10° ENE
Cosmos 1553 Rocket 4.0 20:38:07 10° N 20:44:21 68° E 20:48:07 24° SSE
STARLINK-1331 2.7 20:41:20 10° SW 20:44:26 68° SE 20:47:32 10° ENE
STARLINK-1344 2.7 20:41:38 10° SW 20:44:43 69° SE 20:47:50 10° ENE
STARLINK-1343 2.7 20:42:00 10° SW 20:45:06 69° SE 20:48:13 10° ENE
STARLINK-1346 2.7 20:42:18 10° SW 20:45:24 70° SE 20:48:32 10° ENE
STARLINK-1201 4.2 20:41:29 10° NW 20:45:33 54° NNE 20:48:22 19° E
STARLINK-1328 2.7 20:42:43 10° SW 20:45:49 70° SE 20:48:56 10° ENE
STARLINK-1354 2.7 20:43:01 10° SW 20:46:07 71° SE 20:49:13 10° ENE
STARLINK-1234 3.6 20:42:56 10° WNW 20:46:22 46° SW 20:47:18 36° S
STARLINK-1347 2.7 20:43:19 10° SW 20:46:25 71° SE 20:49:32 10° ENE
STARLINK-1357 2.7 20:43:43 10° SW 20:46:49 72° SE 20:49:56 10° ENE
STARLINK-1335 2.7 20:44:01 10° SW 20:47:07 72° SE 20:50:14 10° ENE
STARLINK-1327 2.7 20:44:22 10° SW 20:47:28 73° SE 20:50:35 10° ENE
STARLINK-1340 2.7 20:44:40 10° SW 20:47:46 73° SE 20:50:53 10° ENE
STARLINK-1356 2.7 20:45:03 10° SW 20:48:08 74° SSE 20:51:15 10° ENE
STARLINK-1345 2.7 20:45:21 10° SW 20:48:27 74° SSE 20:51:35 10° ENE
STARLINK-1355 2.7 20:45:42 10° SW 20:48:48 75° SE 20:51:56 10° ENE
STARLINK-1321 2.7 20:46:03 10° SW 20:49:09 75° SE 20:52:16 10° ENE
STARLINK-1358 2.7 20:46:26 10° SW 20:49:32 76° SSE 20:52:39 10° ENE
STARLINK-1332 2.7 20:46:43 10° SW 20:49:50 77° SE 20:52:57 10° ENE
STARLINK-1348 2.7 20:47:03 10° SW 20:50:09 77° SE 20:53:16 10° ENE
STARLINK-1330 2.7 20:47:23 10° SW 20:50:30 78° SE 20:53:37 10° ENE
STARLINK-1206 4.1 20:46:26 10° NW 20:50:31 57° NNE 20:53:07 21° E
STARLINK-1363 2.7 20:47:43 10° SW 20:50:49 78° SE 20:53:57 10° ENE
STARLINK-1337 2.7 20:48:06 10° SW 20:51:12 79° SSE 20:54:19 10° ENE
STARLINK-1338 3.4 20:47:28 10° SW 20:51:22 60° SE 20:55:17 10° ENE
STARLINK-1342 2.7 20:48:24 10° SW 20:51:31 79° SE 20:54:39 10° ENE
STARLINK-1228 3.8 20:48:11 10° WNW 20:51:39 43° SW 20:52:28 36° S
STARLINK-1364 2.7 20:48:45 10° SW 20:51:52 80° SE 20:54:59 10° ENE
STARLINK-1376 2.7 20:49:05 10° SW 20:52:12 80° SE 20:55:19 10° ENE
STARLINK-1360 2.7 20:49:25 10° SW 20:52:32 81° SE 20:55:40 10° ENE
STARLINK-1361 2.7 20:49:46 10° SW 20:52:53 81° SE 20:56:00 10° ENE
STARLINK-1367 2.7 20:50:02 10° SW 20:53:09 82° SE 20:56:18 10° ENE
Resurs 01 Rocket 4.3 20:51:17 10° WSW 20:53:16 13° W 20:55:15 10° WNW
STARLINK-1366 2.7 20:50:25 10° SW 20:53:32 83° SE 20:56:40 10° ENE
STARLINK-1205 4.0 20:51:24 10° NW 20:55:31 61° NNE 20:57:54 23° ESE
Cosmos 1536 Rocket 3.6 20:55:59 33° SSE 20:57:47 63° E 21:02:08 10° NNE
Cosmos 2084 3.7 20:56:25 31° S 20:58:07 47° ESE 21:02:25 10° NE
STARLINK-1371 3.3 20:55:20 10° SW 20:59:14 69° SE 21:03:08 10° ENE
STARLINK-1218 3.9 20:56:23 10° NW 21:00:31 65° NNE 21:02:41 26° ESE
SPOT 5 3.5 20:57:53 22° S 21:01:15 58° W 21:06:33 10° NNW
In-Cosmos 22 4.5 20:59:52 30° SSE 21:02:01 46° E 21:07:04 10° NNE
STARLINK-1341 3.3 20:59:33 10° SW 21:03:27 74° SE 21:07:23 10° ENE
Cosmos 1544 Rocket 3.9 20:59:58 10° NNW 21:04:16 58° W 21:06:25 28° SSW
Terra 2.0 21:02:43 29° S 21:05:09 69° WSW 21:09:55 10° NNW
STARLINK-1254 3.8 21:01:22 10° NW 21:05:31 70° NNE 21:07:28 29° ESE
CENTAUR R/B 3.5 20:57:41 10° NW 21:05:41 59° WSW 21:11:10 24° S
Cosmos 2266 Rocket 4.3 21:03:13 28° SSE 21:06:05 49° E 21:11:52 10° NNE
JB-3 4.4 21:02:20 10° NNE 21:06:25 61° E 21:07:38 40° SSE
BREEZE-M DEB 3.6 21:03:49 10° W 21:06:35 62° N 21:14:28 10° ENE
Thor Agena Rocket 4.2 21:02:26 10° NNE 21:07:23 40° E 21:09:05 31° SE
Cosmos 2292 Rocket 3.9 21:08:26 31° E 21:08:26 31° E 21:11:02 10° NNE
STARLINK-1374 3.3 21:04:20 10° SW 21:08:18 80° SSE 21:12:18 10° ENE
STARLINK-1231 3.7 21:06:20 10° NW 21:10:30 74° NNE 21:12:15 33° ESE
STARLINK-1339 3.4 21:08:38 10° SW 21:12:36 85° SSE 21:16:37 10° ENE
Cosmos 1655 Rocket 4.0 21:09:11 26° S 21:12:50 76° E 21:19:08 10° N
Cosmos 1726 2.2 21:10:13 10° N 21:13:56 64° E 21:14:42 49° SE
ATLAS 3B R/B 2.7 21:07:17 10° NW 21:14:08 89° NE 21:18:06 29° SE
STARLINK-1232 3.6 21:11:20 10° WNW 21:15:30 80° NNE 21:17:04 37° ESE
STARLINK-1377 3.4 21:12:56 10° WSW 21:16:56 89° NNW 21:20:56 10° ENE
Cosmos 1674 3.5 21:18:37 33° E 21:18:51 34° E 21:22:19 10° NNE
Cosmos 1503 Rocket 4.5 21:13:55 10° NNW 21:19:07 55° WSW 21:21:37 29° S
STARLINK-1208 3.5 21:16:18 10° WNW 21:20:28 85° NNE 21:21:50 41° ESE
STARLINK-1353 3.5 21:17:15 10° WSW 21:21:14 84° NNW 21:25:14 10° ENE
Cosmos 1470 3.8 21:18:04 10° NNW 21:21:39 37° W 21:23:07 26° SW
Meteor 2-10 3.9 21:18:35 10° NNW 21:23:38 81° W 21:25:45 36° S
BREEZE-M DEB (TANK) 3.9 21:11:06 10° W 21:23:57 63° NNW 21:27:33 10° ENE
OE (NEXTSAT) 4.4 21:20:39 10° W 21:24:11 78° N 21:25:22 38° E
STARLINK-1271 3.5 21:21:17 10° WNW 21:25:27 89° SSW 21:26:37 46° SE
STARLINK-1375 3.6 21:21:35 10° WSW 21:25:34 79° NNW 21:29:35 10° NE
BREEZE-M DEB (TANK) 2.7 21:18:42 10° SW 21:26:46 52° SSE 21:29:52 10° ENE
SeaSat 1 3.3 21:23:05 10° NE 21:27:24 30° ESE 21:27:49 29° ESE
BREEZE-M DEB (TANK) 3.4 21:25:32 10° WNW 21:29:09 58° NNE 21:32:59 12° E
STARLINK-1350 3.6 21:25:54 10° WSW 21:29:53 74° NNW 21:33:54 10° NE
Cosmos 1606 Rocket 4.2 21:26:06 10° N 21:30:16 43° ENE 21:31:19 36° ESE
STARLINK-1154 3.5 21:26:14 10° WNW 21:30:24 83° SSW 21:31:22 51° SE
COSMOS 2455 3.1 21:24:36 10° SW 21:30:35 69° NW 21:36:38 10° NNE
Cosmos 1340 Rocket 2.8 21:27:07 10° NNW 21:31:12 80° W 21:32:10 51° S
Cosmos 1025 Rocket 3.8 21:30:38 24° SW 21:32:53 46° WNW 21:37:04 10° N
ATLAS 3B CENTAUR R/B 4.4 21:24:24 10° WSW 21:33:35 22° SSW 21:35:20 20° SSW
STARLINK-1352 3.7 21:30:18 10° WSW 21:34:16 70° NNW 21:38:17 10° NE
STARLINK-1197 3.5 21:31:14 10° WNW 21:35:23 77° SW 21:36:10 56° SE
COSMOS 2487 3.1 21:32:39 10° NNW 21:35:57 42° WSW 21:36:14 41° WSW
NOSS 3-4 (A) 4.3 21:31:41 10° WSW 21:37:27 49° NW 21:43:38 10° NNE
NOSS 3-4 (C) 4.3 21:31:46 10° WSW 21:37:32 49° NW 21:43:45 10° NNE
ALOS 2 3.8 21:37:11 26° ESE 21:38:32 32° ENE 21:42:27 10° N
STARLINK-1368 3.9 21:34:43 10° WSW 21:38:41 66° NNW 21:42:41 10° NE
STARLINK-1198 3.5 21:36:13 10° WNW 21:40:21 71° SW 21:40:57 60° SSE
Aureole 3 2.7 21:39:33 10° N 21:42:17 70° N 21:42:17 70° N
STARLINK-1369 3.9 21:38:39 10° WSW 21:42:34 62° NNW 21:46:32 10° NE
RESURS DK-1 2.4 21:42:39 41° SW 21:44:02 78° WNW 21:48:11 10° NNE
ATLAS 5 CENTAUR R/B 2.0 21:39:17 10° SW 21:44:25 57° NW 21:46:44 10° NNE
STARLINK-1199 3.5 21:41:12 10° WNW 21:45:19 66° SW 21:45:43 61° S
Meteor 2-19 Rocket 4.5 21:42:44 30° SSW 21:45:56 80° W 21:52:05 10° N
Cosmos 1626 3.6 21:46:19 25° E 21:46:19 25° E 21:49:13 10° NNE
CZ-4C R/B 3.4 21:46:26 21° ESE 21:46:26 21° ESE 21:50:14 10° ENE
Meteor 1-24 Rocket 4.4 21:44:56 32° ESE 21:46:19 37° E 21:51:23 10° NNE
Cosmos 1953 3.0 21:42:39 10° NNW 21:46:28 46° W 21:47:21 39° SW
STARLINK-1372 4.1 21:43:06 10° WSW 21:47:01 58° NNW 21:50:57 10° NE
Cosmos 2297 Rocket 3.2 21:42:48 10° NNW 21:48:04 37° NE 21:51:11 21° ESE
STARLINK-1210 3.6 21:46:11 10° WNW 21:50:18 60° SW 21:50:30 59° SSW
STARLINK-1378 4.2 21:47:31 10° WSW 21:51:25 55° NNW 21:55:21 10° NE
Spot 4 3.8 21:50:03 47° SSE 21:51:29 87° ENE 21:56:22 10° NNW
Lacrosse 4 Rocket 3.8 21:48:50 10° N 21:51:52 18° NE 21:54:47 10° E
Cosmos 2219 3.8 21:46:30 10° NNW 21:51:59 47° ENE 21:54:40 27° ESE
Cosmos 921 Rocket 3.1 21:52:46 51° SE 21:53:11 54° ESE 21:57:28 10° NNE
Cosmos 2228 2.9 21:49:05 10° N 21:53:20 74° E 21:54:03 58° SE
Cosmos 220 Rocket 4.2 21:52:57 50° SE 21:53:24 52° ESE 21:57:44 10° NNE
STARLINK-1219 3.7 21:51:13 10° WNW 21:55:17 55° SW 21:55:19 55° SW
STARLINK-1379 4.3 21:52:01 10° WSW 21:55:55 52° NNW 21:59:49 10° NE
SL-4 R/B 3.9 21:51:35 10° WNW 21:56:05 38° N 22:00:38 10° ENE
STARLINK-1192 4.4 21:53:28 10° NW 21:57:32 50° NNE 21:59:44 24° E
STARLINK-1329 4.4 21:55:46 10° WSW 21:59:39 50° NNW 22:03:33 10° NE
STARLINK-1211 3.9 21:56:12 10° WNW 22:00:05 50° SW 22:00:05 50° SW
SL-4 R/B 3.5 22:03:44 17° NNE 22:03:44 17° NNE 22:04:25 10° N
STARLINK-1244 4.3 21:58:26 10° NW 22:02:30 53° NNE 22:04:30 27° E
EO 1 Del DPAF 3.6 22:00:32 10° N 22:04:15 58° WNW 22:04:56 49° WSW
STARLINK-1245 4.1 22:01:12 10° WNW 22:04:51 45° WSW 22:04:51 45° WSW
ATLAS 2AS CENTAUR R/B 4.2 21:58:24 10° WSW 22:05:55 42° NW 22:13:21 10° NNE
STARLINK-1138 4.2 22:03:24 10° NW 22:07:29 56° NNE 22:09:16 30° E
Timation 2 Rocket 3.9 22:01:26 10° NNW 22:07:38 71° WSW 22:09:46 41° S
Cosmos 1809 Rocket 4.4 22:07:49 40° S 22:10:08 74° E 22:16:20 10° NNE
STARLINK-1233 4.3 22:06:13 10° WNW 22:09:38 40° WSW 22:09:38 40° WSW
Okean 1-7 Rocket 3.7 22:09:54 52° SE 22:10:33 58° E 22:15:02 10° NNE
Helios 1A 4.0 22:10:55 32° E 22:11:50 37° ENE 22:15:42 10° N
STARLINK-1143 4.1 22:08:23 10° NW 22:12:30 59° NNE 22:14:04 34° E
Cosmos 1726 Rocket 3.4 22:09:12 10° N 22:13:33 83° W 22:14:12 63° S
Cosmos 1697 Rocket 4.0 22:12:54 24° ESE 22:13:35 24° ESE 22:18:03 10° NE
ATLAS CENTAUR R/B 4.1 22:10:57 10° W 22:13:56 18° NW 22:16:47 10° N
STARLINK-1204 4.5 22:11:13 10° WNW 22:14:24 36° WSW 22:14:24 36° WSW
Cosmos 1892 Rocket 3.4 22:14:31 64° SSE 22:15:08 81° E 22:19:31 10° N
BREEZE-M R/B 3.8 22:05:40 10° WSW 22:15:23 83° SSE 22:19:48 10° ENE
Cosmos 2098 Rocket 4.5 22:12:13 31° SSW 22:16:08 75° W 22:23:32 10° N
STARLINK-1241 3.9 22:13:22 10° NW 22:17:30 63° NNE 22:18:52 39° E
SJ 16-02 2.4 22:17:07 10° N 22:21:17 38° ENE 22:22:33 31° ESE
STARLINK-1239 3.8 22:18:21 10° NW 22:22:29 68° NNE 22:23:39 44° E
Cosmos 1437 3.9 22:23:34 35° NE 22:23:34 35° NE 22:25:36 10° NNE
Nadezhda 2 Rocket 4.4 22:21:47 41° S 22:24:04 88° E 22:30:17 10° N
Cosmos 2315 Rocket 4.2 22:18:02 10° NNW 22:24:07 59° W 22:26:32 36° SSW
Cosmos 2227 Rocket 2.5 22:20:22 10° NNW 22:26:02 61° ENE 22:28:23 34° SE
Cosmos 1763 Rocket 4.4 22:25:58 31° ESE 22:26:29 31° E 22:30:56 10° NE
STARLINK-1240 3.7 22:23:17 10° NW 22:27:27 73° NNE 22:28:24 50° E
STARLINK-1216 3.6 22:28:17 10° NW 22:32:27 78° NNE 22:33:11 58° E
Landsat 4 4.4 22:31:10 10° NNE 22:34:25 41° E 22:34:25 41° E
SL-14 R/B 3.1 22:36:22 79° WSW 22:36:27 80° W 22:40:19 10° N
Cosmos 1356 Rocket 3.6 22:33:01 10° N 22:37:14 60° ENE 22:37:47 55° ESE
STARLINK-1237 3.6 22:33:16 10° WNW 22:37:25 83° NNE 22:37:58 66° ESE
Nadezhda 1 Rocket 4.4 22:32:06 10° N 22:38:15 56° ENE 22:40:51 34° SE
STARLINK-1202 3.5 22:38:15 10° WNW 22:42:25 89° NE 22:42:46 75° ESE
Meteor 2-16 Rocket 4.4 22:43:09 44° S 22:45:13 78° E 22:51:21 10° NNE
STARLINK-1203 3.4 22:42:13 10° WNW 22:46:18 86° SW 22:46:22 85° S
Meteor 2-5 Rocket 4.3 22:46:11 32° SW 22:48:26 51° WNW 22:53:58 10° N
USA 215 3.6 22:42:46 10° ESE 22:49:12 63° NNE 22:55:40 10° NW
Cosmos 1300 2.8 22:45:29 10° NNW 22:49:12 65° W 22:49:12 65° W
Meteor 2-10 Rocket 4.4 22:47:28 10° N 22:52:18 40° ENE 22:54:09 29° ESE
STARLINK-1246 3.4 22:48:13 10° WNW 22:52:19 79° SW 22:52:19 79° SW
YAOGAN 11 3.9 22:54:28 66° SSE 22:55:03 83° ENE 22:59:22 10° NNW
STARLINK-1224 3.5 22:53:11 10° WNW 22:57:05 70° WSW 22:57:05 70° WSW
Cosmos 1626 Rocket 3.4 22:57:33 69° SSE 22:58:00 79° E 23:02:24 10° N
Cosmos 540 Rocket 4.4 23:01:19 31° ESE 23:02:11 33° E 23:06:43 10° NE
STARLINK-1225 3.7 22:58:11 10° WNW 23:01:52 62° WSW 23:01:52 62° WSW
SL-08 ROCKET BODY 4.3 23:01:21 46° S 23:03:11 79° E 23:09:03 10° N
ATLAS 3B R/B 4.2 22:59:21 10° WNW 23:04:01 20° WSW 23:05:21 19° WSW
SeaSat 1 3.4 23:00:22 10° NNE 23:05:01 42° NW 23:07:34 24° WSW
FALCON 9 R/B 3.9 23:08:52 27° SE 23:08:52 27° SE 23:16:27 10° ESE
STARLINK-1230 3.9 23:03:09 10° WNW 23:06:38 54° W 23:06:38 54° W
Cosmos 2058 Rocket 4.1 23:05:21 10° NNW 23:09:22 33° W 23:09:53 32° WSW
Cosmos 1980 Rocket 2.9 23:10:04 33° SE 23:11:19 38° ESE 23:16:29 10° NE
STARLINK-1243 4.1 23:08:10 10° WNW 23:11:26 47° W 23:11:26 47° W
Helios 1B rocket 2.6 23:09:40 10° NNE 23:13:46 57° E 23:14:05 55° ESE
ALOS 2 3.9 23:14:35 26° WSW 23:14:52 26° W 23:18:35 10° NW
Cosmos 468 Rocket 3.9 23:14:13 50° SSW 23:15:33 82° WNW 23:20:44 10° NNE
STARLINK-1236 4.3 23:13:09 10° WNW 23:16:12 41° W 23:16:12 41° W
Cosmos 1745 Rocket 3.9 23:16:47 42° SSW 23:18:59 78° W 23:25:09 10° N
STARLINK-1317 4.2 23:21:44 41° E 23:21:44 41° E 23:24:39 10° ENE
Cosmos 1626 3.9 23:20:51 21° W 23:21:19 22° WNW 23:24:16 10° NNW
Cosmos 2369 3.6 23:20:09 47° S 23:21:49 79° ESE 23:27:30 10° NNE
ERBS 3.4 23:20:08 10° NW 23:22:16 36° WNW 23:22:16 36° WNW
Meteor 1-29 3.8 23:21:40 10° NNE 23:24:32 41° E 23:24:32 41° E
Cosmos 1455 2.3 23:21:14 10° N 23:24:59 62° E 23:25:11 61° E
Cosmos 1937 Rocket 3.4 23:20:07 10° NNW 23:25:25 89° WSW 23:27:02 46° SSE
STARLINK-1274 4.3 23:27:24 35° E 23:27:24 35° E 23:29:45 10° ENE
Cosmos 1812 Rocket 3.5 23:22:01 10° NNW 23:26:28 76° W 23:27:04 64° SSW
STARLINK-43 3.9 23:26:08 42° WNW 23:26:59 54° NNW 23:30:36 10° NE
STARLINK-55 3.8 23:28:11 45° NE 23:28:11 45° NE 23:30:32 10° ENE
Cosmos 2263 Rocket 3.8 23:23:05 10° N 23:27:59 30° NE 23:32:50 10° ESE
STARLINK-1291 4.0 23:30:04 44° E 23:30:04 44° E 23:32:55 10° ENE
Alouette 2 Rocket 3.7 23:24:58 10° N 23:29:37 60° ENE 23:30:22 49° ESE
Cosmos 1656 4.3 23:27:54 28° WSW 23:30:34 49° WNW 23:36:00 10° NNE
Cosmos 1703 3.7 23:30:32 47° ESE 23:30:52 48° E 23:34:39 10° NNE
Lacrosse 4 Rocket 1.4 23:26:44 10° NW 23:30:59 62° WSW 23:31:03 62° WSW
Cosmos 2297 Rocket 2.9 23:26:56 10° NW 23:32:05 37° WSW 23:32:59 34° SW
Cosmos 1825 Rocket 3.9 23:31:32 47° SE 23:32:15 54° E 23:36:31 10° NNE
STARLINK-1264 3.8 23:33:15 48° E 23:33:15 48° E 23:36:14 10° ENE
CZ-4C R/B 2.4 23:31:35 32° WSW 23:33:56 62° NW 23:39:56 10° NE
Cosmos 1898 Rocket 3.7 23:28:56 10° NNW 23:34:08 55° WSW 23:35:13 46° SSW
Cosmos 2219 4.3 23:31:08 10° NW 23:35:51 28° WSW 23:36:34 27° WSW
STARLINK-1267 3.7 23:36:27 54° E 23:36:27 54° E 23:39:35 10° ENE
Cosmos 1602 Rocket 3.9 23:35:23 47° WSW 23:36:04 52° WNW 23:40:18 10° N
SL-4 R/B 3.3 23:31:50 10° WNW 23:36:34 48° NNE 23:41:10 10° E
Cosmos 2360 4.1 23:35:46 45° SSW 23:37:36 80° ESE 23:43:19 10° NNE
Cosmos 372 Rocket 4.5 23:33:02 10° NNW 23:38:06 55° ENE 23:40:52 26° SE
STARLINK-28 3.4 23:39:11 59° N 23:39:11 59° N 23:42:03 10° NE
STARLINK-1207 3.4 23:42:56 67° ESE 23:42:56 67° ESE 23:46:22 10° ENE
PSLV R/B 3.6 23:38:38 10° N 23:43:02 68° WNW 23:43:52 53° SW
Cosmos 990 Rocket 4.5 23:38:47 10° NNW 23:43:43 43° WSW 23:44:36 40° SW
ATLAS CENTAUR R/B 3.5 23:43:00 10° WNW 23:43:35 16° WNW 23:43:35 16° WNW
STARLINK-1266 3.3 23:46:11 74° ESE 23:46:11 74° ESE 23:49:45 10° ENE
Cosmos 2082 3.8 23:41:12 10° NNW 23:46:42 56° WSW 23:48:10 43° SSW
STARLINK-33 3.5 23:49:21 55° N 23:49:21 55° N 23:52:04 10° NE
STARLINK-1284 3.2 23:49:26 81° SE 23:49:26 81° SE 23:53:09 10° ENE
Cosmos 2322 Rocket 4.0 23:47:53 15° SE 23:50:17 19° E 23:54:10 10° NE
Cosmos 1814 Rocket 4.0 23:49:00 45° S 23:50:40 80° ESE 23:55:59 10° NNE
STARLINK-26 3.5 23:51:17 54° WNW 23:51:40 59° NNW 23:55:04 10° NE
STARLINK-1258 3.2 23:52:43 83° SSW 23:52:50 85° SE 23:56:35 10° ENE
